[[{"header":{"parameterUnit":"m.s-1","parameterCategory":1,"la1":30.2991,"la2":30.254,"lo1":-89.0895,"lo2":-89.0444,"dy":0.0017,"dx":0.0017,"nx":28,"ny":28,"refTime":"2023-09-21T03:00:00:Z","depth":0,"parameterNumber":2,"parameterNumberName":"U-component_of_WINDS"},"data":[0,0,0,0,0,0,0,0,0,0,0,0,0,0,0,0,0,0,0,0,0,0,0,0,0,0,0,0,0,0,0,0,0,0,0,0,0,0,0,0,0,0,0,0,0,0,0,0,0,0,0,0,0,0,0,0,0,0,-3.3995,-3.3992,0,-3.3672,-3.3669,-3.3665,-3.3368,-3.3364,-3.3361,-3.3357,-3.3028,-3.3023,-3.3017,0,0,0,0,0,0,0,0,0,0,0,0,0,-3.4358,-3.4353,-3.3996,-3.3992,-3.3987,-3.3673,-3.3668,-3.3664,-3.3369,-3.3364,-3.336,-3.3356,-3.303,-3.3023,-3.3017,0,0,0,0,0,0,0,0,0,0,0,0,0,-3.4135,-3.4352,-3.3996,-3.3802,-3.3781,-3.3674,-3.3668,-3.3663,-3.3369,-3.3364,-3.3359,-3.3354,-3.3032,-3.3024,-3.3016,-3.3075,0,0,-3.2991,-3.2988,0,0,0,0,0,0,0,0,-3.4148,-3.4122,-3.3835,-3.3815,-3.3792,-3.3555,-3.3675,-3.3466,-3.3371,-3.3526,-3.3357,-3.3351,-3.3208,-3.3185,-3.3136,-3.3059,-3.3045,-3.299,-3.2985,-3.2982,-3.298,0,0,0,0,0,0,0,-3.4164,-3.4134,-3.3867,-3.3831,-3.3805,-3.3732,-3.3694,-3.3634,-3.3401,-3.3512,-3.349,-3.3455,-3.3195,-3.3145,-3.3126,-3.304,-3.2991,-3.2983,-3.2978,-3.2975,-3.2997,-3.3003,0,0,0,0,0,0,-3.4209,-3.4149,-3.3878,-3.3858,-3.396,-3.373,-3.3687,-3.3636,-3.3401,-3.336,-3.346,-3.3443,-3.3161,-3.3136,-3.3114,-3.3167,-3.2982,-3.2974,-3.297,-3.2992,-3.2999,-3.3004,0,0,0,0,0,0,-3.4218,-3.4188,-3.3891,-3.3997,-3.3954,-3.3729,-3.3674,-3.3633,-3.3582,-3.3362,-3.3319,-3.3452,-3.3156,-3.3125,-3.3087,-3.3152,-3.2971,-3.2963,-3.2986,-3.2994,-3.3002,-3.3276,0,0,0,0,0,0,-3.423,-3.4193,-3.4212,-3.4,-3.3949,-3.3869,-3.3678,-3.3631,-3.3569,-3.3543,-3.3342,-3.3304,-3.3149,-3.3101,-3.3079,-3.3137,-3.2957,-3.2979,-3.2989,-3.2999,-3.326,-3.3293,-3.3321,0,0,0,0,0,-3.4244,-3.4302,-3.4214,-3.4183,-3.3969,-3.3874,-3.3845,-3.3665,-3.3575,-3.3593,-3.3452,-3.331,-3.3149,-3.3099,-3.3072,-3.3129,-3.2974,-3.2986,-3.2998,-3.3247,-3.3286,-3.332,0,0,0,0,0,0,-3.4526,-3.427,-3.417,-3.4161,-3.4042,-3.3824,-3.384,-3.3712,-3.3615,-3.3595,-3.3377,-3.3334,-3.3321,-3.3221,-3.317,-3.3175,-3.3042,-3.305,-3.324,-3.3276,-3.3306,-3.333,-3.295,0,0,0,0,0,-3.4588,-3.4532,-3.4311,-3.4325,-3.427,-3.4067,-3.4019,-3.3891,-3.3758,-3.3706,-3.3561,-3.3439,-3.336,-3.3312,-3.3228,-3.3245,-3.3198,-3.3271,-3.3302,-3.3328,-3.3336,-3.334,-3.3371,-3.3045,-3.3045,-3.3044,0,0,-3.4714,-3.4567,-3.4545,-3.4378,-3.427,-3.4218,-3.4026,-3.3978,-3.3937,-3.3698,-3.3653,-3.3545,-3.3393,-3.3384,-3.3372,-3.33,-3.3417,-3.3343,-3.3366,-3.3359,-3.3356,-3.3387,-3.3415,-3.3053,-3.3051,-3.305,0,0,-3.4916,-3.48,-3.4798,-3.4695,-3.4535,-3.4399,-3.4401,-3.4202,-3.412,-3.4072,-3.3893,-3.3842,-3.3711,-3.3611,-3.3543,-3.3713,-3.3579,-3.3692,-3.3848,-3.3855,-3.388,-3.3902,-3.3964,-3.3988,-3.3701,-3.3702,-3.3702,0,-3.5093,-3.5006,-3.4814,-3.4778,-3.4711,-3.4493,-3.4492,-3.44,-3.4222,-3.4181,-3.4102,-3.3935,-3.3817,-3.3782,-3.3825,-3.3777,-3.3771,-3.3712,-3.3892,-3.3912,-3.3929,-3.3986,-3.4009,-3.3717,-3.3715,-3.3713,-3.3712,0,-3.5232,-3.5175,-3.5194,-3.5027,-3.4962,-3.4943,-3.475,-3.4707,-3.4587,-3.4462,-3.4417,-3.4269,-3.4152,-3.4134,-3.4015,-3.4084,-3.4044,-3.3933,-3.3794,-3.3979,-3.4028,-3.4048,-3.3738,-3.3732,-3.3728,-3.3724,0,0,-3.56,-3.533,-3.534,-3.5263,-3.5071,-3.5024,-3.4997,-3.4882,-3.4851,-3.4736,-3.4708,-3.4605,-3.4501,-3.4425,-3.4293,-3.4299,-3.4445,-3.4186,-3.4179,-3.424,-3.4513,-3.4598,-3.4626,-3.4356,-3.436,-3.4362,-3.4526,0,-3.577,-3.5708,-3.5537,-3.5527,-3.5473,-3.5268,-3.5245,-3.5126,-3.5009,-3.4947,-3.4817,-3.4748,-3.4616,-3.4568,-3.4565,-3.4428,-3.4497,-3.4414,-3.433,-3.4329,-3.4373,-3.4651,-3.474,-3.4901,-3.4544,-3.4547,-3.4549,0,-3.596,-3.5859,-3.5845,-3.5659,-3.563,-3.5612,-3.5494,-3.5437,-3.53,-3.5214,-3.5132,-3.4987,-3.4949,-3.4823,-3.4769,-3.4717,-3.4672,-3.4601,-3.4603,-3.4587,-3.445,-3.4644,-3.4948,-3.4973,-3.4577,-3.4575,-3.4573,0,-3.6231,-3.6092,-3.6065,-3.6005,-3.5787,-3.578,-3.5689,-3.5546,-3.5489,-3.5387,-3.5348,-3.5245,-3.5188,-3.5112,-3.4943,-3.4867,-3.4909,-3.4768,-3.4838,-3.4843,-3.4855,-3.4856,-3.5157,-3.4829,-3.4828,-3.4828,-3.4827,0,-3.6438,-3.6438,-3.6184,-3.6168,-3.6163,-3.5967,-3.5967,-3.5856,-3.5732,-3.5692,-3.5509,-3.5476,-3.5256,-3.5198,-3.5067,-3.5043,-3.5019,-3.495,-3.4915,-3.4966,-3.4975,-3.4933,-3.4917,-3.4834,-3.4833,-3.4831,-3.483,0,-3.6739,-3.6569,-3.6527,-3.6325,-3.6275,-3.628,-3.6107,-3.6085,-3.5958,-3.591,-3.5888,-3.569,-3.5612,-3.5438,-3.5314,-3.5225,-3.5235,-3.5172,-3.5282,-3.526,-3.534,-3.5335,-3.5623,-3.5652,-3.5308,-3.5311,-3.5314,0,-3.6882,-3.6877,-3.6676,-3.6636,-3.6553,-3.6491,-3.6432,-3.6241,-3.6188,-3.6033,-3.6031,-3.5939,-3.5855,-3.5742,-3.5588,-3.5493,-3.5426,-3.5534,-3.541,-3.5463,-3.5428,-3.543,-3.543,-3.5561,-3.5566,-3.557,-3.5573,0,-3.7155,-3.7072,-3.6994,-3.6889,-3.6825,-3.6732,-3.663,-3.6609,-3.6393,-3.6343,-3.6262,-3.6198,-3.6072,-3.5984,-3.5867,-3.5774,-3.5639,-3.5614,-3.5624,-3.5676,-3.574,-3.5707,-3.5356,-3.5607,-3.5604,-3.5601,-3.5599,-3.5598,-3.7379,-3.7366,-3.7224,-3.7145,-3.7048,-3.6958,-3.6928,-3.6799,-3.6728,-3.661,-3.6502,-3.6433,-3.6298,-3.6126,-3.6043,-3.5987,-3.5918,-3.5935,-3.5938,-3.5945,-3.5968,-3.5751,-3.5965,-3.5964,-3.5963,-3.5962,-3.5961,0,-3.7643,-3.7542,-3.7471,-3.7335,-3.7274,-3.7152,-3.7034,-3.6991,-3.6932,-3.6818,-3.674,-3.6649,-3.6564,-3.6405,-3.6307,-3.6293,-3.6229,-3.6274,-3.6272,-3.6254,-3.6035,-3.6035,-3.6327,-3.6327,-3.6327,-3.6327,-3.6327,-3.6327,-3.7772,-3.7744,-3.7646,-3.7569,-3.7467,-3.7397,-3.7341,-3.7257,-3.7165,-3.7072,-3.7001,-3.6898,-3.6766,-3.6657,-3.6575,-3.6531,-3.6503,-3.6569,-3.6505,-3.6303,-3.6269,-3.6236,-3.6235,-3.6564,-3.6565,-3.6728,-3.6729,-3.6731]},{"header":{"parameterUnit":"m.s-1","parameterCategory":1,"la1":30.2991,"la2":30.254,"lo1":-89.0895,"lo2":-89.0444,"dy":0.0017,"dx":0.0017,"nx":28,"ny":28,"refTime":"2023-09-21T03:00:00:Z","depth":0,"parameterNumber":3,"parameterNumberName":"V-component_of_WINDS"},"data":[0,0,0,0,0,0,0,0,0,0,0,0,0,0,0,0,0,0,0,0,0,0,0,0,0,0,0,0,0,0,0,0,0,0,0,0,0,0,0,0,0,0,0,0,0,0,0,0,0,0,0,0,0,0,0,0,0,0,-0.4746,-0.4746,0,-0.474,-0.474,-0.4739,-0.4691,-0.469,-0.4689,-0.4688,-0.4681,-0.4681,-0.4682,0,0,0,0,0,0,0,0,0,0,0,0,0,-0.4715,-0.4715,-0.4746,-0.4746,-0.4746,-0.474,-0.474,-0.4739,-0.4691,-0.469,-0.4688,-0.4687,-0.468,-0.4681,-0.4682,0,0,0,0,0,0,0,0,0,0,0,0,0,-0.472,-0.4716,-0.4746,-0.4721,-0.4719,-0.474,-0.474,-0.4739,-0.4692,-0.469,-0.4688,-0.4686,-0.468,-0.4681,-0.4683,-0.4727,0,0,-0.4687,-0.4687,0,0,0,0,0,0,0,0,-0.472,-0.4721,-0.4725,-0.4723,-0.472,-0.4714,-0.4726,-0.4735,-0.4692,-0.4702,-0.4688,-0.4685,-0.4693,-0.4693,-0.4696,-0.4726,-0.4726,-0.4687,-0.4688,-0.4688,-0.4689,0,0,0,0,0,0,0,-0.472,-0.4721,-0.4744,-0.4725,-0.4722,-0.4709,-0.4708,-0.4727,-0.4708,-0.4701,-0.4697,-0.4697,-0.4692,-0.4695,-0.4696,-0.4726,-0.4687,-0.4688,-0.4689,-0.469,-0.4787,-0.4789,0,0,0,0,0,0,-0.4723,-0.4721,-0.4744,-0.4743,-0.4716,-0.4712,-0.471,-0.4718,-0.4707,-0.4704,-0.4699,-0.4695,-0.4693,-0.4694,-0.4695,-0.4743,-0.4688,-0.469,-0.469,-0.4786,-0.4788,-0.479,0,0,0,0,0,0,-0.4722,-0.4725,-0.4744,-0.4731,-0.4733,-0.4714,-0.4723,-0.4719,-0.4722,-0.4706,-0.4702,-0.4706,-0.4692,-0.4693,-0.4718,-0.4742,-0.469,-0.4692,-0.4784,-0.4786,-0.4789,-0.4842,0,0,0,0,0,0,-0.4722,-0.4726,-0.4743,-0.4732,-0.4734,-0.4769,-0.4725,-0.472,-0.4725,-0.472,-0.4711,-0.4708,-0.4691,-0.4716,-0.472,-0.4743,-0.4693,-0.4781,-0.4785,-0.4788,-0.4838,-0.4846,-0.4853,0,0,0,0,0,-0.4721,-0.4759,-0.4744,-0.4747,-0.4755,-0.477,-0.4771,-0.475,-0.4727,-0.4743,-0.4732,-0.4708,-0.4739,-0.4719,-0.4723,-0.4747,-0.478,-0.4784,-0.4788,-0.4834,-0.4844,-0.4853,0,0,0,0,0,0,-0.4774,-0.4757,-0.4741,-0.4777,-0.4775,-0.4762,-0.4783,-0.4762,-0.4767,-0.4762,-0.4736,-0.4734,-0.4762,-0.4757,-0.4735,-0.4787,-0.4755,-0.476,-0.4789,-0.4799,-0.4806,-0.4806,-0.4694,0,0,0,0,0,-0.479,-0.4804,-0.4788,-0.4822,-0.4821,-0.4802,-0.4808,-0.4792,-0.4789,-0.4788,-0.4779,-0.4777,-0.4785,-0.4792,-0.4799,-0.4836,-0.4832,-0.4854,-0.4862,-0.4868,-0.4873,-0.4888,-0.4897,-0.4803,-0.4803,-0.4803,0,0,-0.4824,-0.4816,-0.4826,-0.4832,-0.4829,-0.4842,-0.4802,-0.4819,-0.4828,-0.4791,-0.4813,-0.4806,-0.4801,-0.4832,-0.4845,-0.4828,-0.4897,-0.4873,-0.4879,-0.4879,-0.4893,-0.4902,-0.491,-0.4806,-0.4805,-0.4805,0,0,-0.489,-0.4887,-0.4913,-0.491,-0.4905,-0.4891,-0.4897,-0.4886,-0.488,-0.4902,-0.4872,-0.4883,-0.4899,-0.4896,-0.4897,-0.4958,-0.4936,-0.4962,-0.5001,-0.5016,-0.5024,-0.503,-0.505,-0.5057,-0.4966,-0.4966,-0.4966,0,-0.4932,-0.4952,-0.4929,-0.4946,-0.4949,-0.4914,-0.4938,-0.4936,-0.4934,-0.4936,-0.4918,-0.4935,-0.493,-0.4957,-0.4972,-0.4974,-0.4979,-0.4963,-0.5025,-0.5031,-0.5037,-0.5055,-0.5062,-0.4969,-0.4969,-0.4969,-0.4968,0,-0.5003,-0.5017,-0.5038,-0.5035,-0.504,-0.5061,-0.5039,-0.5046,-0.5029,-0.5016,-0.5037,-0.5029,-0.5033,-0.5038,-0.5022,-0.5062,-0.5052,-0.503,-0.4997,-0.5049,-0.5065,-0.5072,-0.4974,-0.4972,-0.4972,-0.4971,0,0,-0.5105,-0.5087,-0.5095,-0.5091,-0.5082,-0.5092,-0.511,-0.5113,-0.5118,-0.5117,-0.513,-0.5143,-0.5121,-0.5122,-0.5105,-0.5119,-0.5164,-0.5094,-0.5093,-0.5106,-0.5205,-0.522,-0.5229,-0.5149,-0.515,-0.5151,-0.5204,0,-0.5167,-0.5198,-0.5176,-0.5209,-0.522,-0.5186,-0.5201,-0.5196,-0.5184,-0.5191,-0.5177,-0.5186,-0.5158,-0.5158,-0.517,-0.5156,-0.5184,-0.5152,-0.5159,-0.516,-0.516,-0.5238,-0.5256,-0.5306,-0.5211,-0.5212,-0.5213,0,-0.5245,-0.5246,-0.528,-0.5265,-0.5269,-0.5283,-0.5282,-0.5289,-0.5282,-0.5272,-0.5271,-0.5249,-0.5263,-0.5231,-0.525,-0.5229,-0.523,-0.5224,-0.5225,-0.5224,-0.5189,-0.5238,-0.5322,-0.5329,-0.5223,-0.5222,-0.5222,0,-0.5313,-0.5323,-0.5344,-0.5342,-0.5326,-0.5336,-0.533,-0.532,-0.5322,-0.5321,-0.5321,-0.5322,-0.5322,-0.5322,-0.53,-0.5279,-0.532,-0.5287,-0.5311,-0.5311,-0.5321,-0.532,-0.5405,-0.5324,-0.5324,-0.5324,-0.5324,0,-0.5384,-0.5406,-0.5374,-0.5387,-0.5409,-0.5382,-0.5405,-0.5395,-0.5386,-0.5395,-0.5365,-0.5374,-0.5344,-0.535,-0.5332,-0.5348,-0.5349,-0.534,-0.5335,-0.5342,-0.5343,-0.5342,-0.5337,-0.5326,-0.5325,-0.5325,-0.5325,0,-0.5464,-0.5444,-0.5464,-0.5445,-0.5441,-0.5458,-0.5442,-0.5452,-0.5437,-0.5449,-0.545,-0.5426,-0.543,-0.5408,-0.5409,-0.5396,-0.542,-0.541,-0.5423,-0.5419,-0.5443,-0.544,-0.5529,-0.5538,-0.5453,-0.5454,-0.5455,0,-0.5511,-0.5526,-0.5509,-0.5512,-0.5507,-0.5514,-0.5515,-0.5488,-0.549,-0.548,-0.5491,-0.5492,-0.5492,-0.55,-0.5482,-0.5481,-0.547,-0.5501,-0.5469,-0.5475,-0.5467,-0.5466,-0.5466,-0.5507,-0.5508,-0.5509,-0.551,0,-0.5594,-0.5582,-0.5585,-0.5583,-0.5585,-0.5583,-0.5578,-0.5583,-0.5553,-0.5557,-0.556,-0.556,-0.5559,-0.5559,-0.5555,-0.5546,-0.5522,-0.5519,-0.5524,-0.5531,-0.5537,-0.5532,-0.5439,-0.5518,-0.5517,-0.5516,-0.5516,-0.5515,-0.5657,-0.5668,-0.5656,-0.5659,-0.5653,-0.5648,-0.5656,-0.5641,-0.5644,-0.5641,-0.5624,-0.563,-0.5618,-0.5609,-0.5603,-0.5605,-0.559,-0.5598,-0.56,-0.5602,-0.5605,-0.5537,-0.5605,-0.5604,-0.5604,-0.5604,-0.5604,0,-0.5737,-0.5727,-0.573,-0.5723,-0.5725,-0.5702,-0.5695,-0.5698,-0.5703,-0.5694,-0.5694,-0.5696,-0.5696,-0.5677,-0.5674,-0.568,-0.5668,-0.568,-0.5678,-0.5676,-0.562,-0.5615,-0.5689,-0.5689,-0.5689,-0.5689,-0.5689,-0.5689,-0.5778,-0.5794,-0.5781,-0.5792,-0.5782,-0.5787,-0.5785,-0.578,-0.5772,-0.5776,-0.5775,-0.5763,-0.5749,-0.5744,-0.5742,-0.5736,-0.5736,-0.575,-0.5741,-0.5689,-0.568,-0.5673,-0.5668,-0.5751,-0.5751,-0.5796,-0.5797,-0.5797]}]]